Location: Unspecified
(0.0000°N, 0.0000°E)
Time: 18:54:32
(UTC+00:00)

Vanguard 3 - Pass Details

Date: 24 November 2019
Orbit: 508 x 3263 km, 33.3° (Epoch: 06 December)

Event Time Altitude Azimuth Distance (km) Brightness Sun altitude
Rises 10:20:06 0° 255° (WSW) 4,860 11.0 60.5°
Reaches altitude 10° 10:23:00 10° 261° (W) 4,192 10.7 61.0°
Maximum altitude 10:34:40 47° 331° (NNW) 3,164 10.5 63.0°
Drops below altitude 10° 10:52:25 10° 40° (NE) 6,142 11.7 65.6°
Sets 10:57:51 0° 45° (NE) 7,223 11.9 66.3°
